Home   Weather   Bellevue   Past weeks
Flag for USA

Past Weather in Bellevue, Washington, USA — Yesterday and Last 2 Weeks

Now
59 °F

Sunny.


Feels Like: 57 °F
Forecast: 64 / 40 °F
Wind: 10 mph from West

Location: Seattle Boeing Field

Current Time: Apr 9, 2020 at 1:35:43 pm

Latest Report: Apr 9, 2020 at 11:53 am


Visibility: 10 mi

Pressure: 30.16 "Hg

Humidity: 42%

Dew Point: 36 °F

Location of BellevueLocation

Past Weather in Bellevue — Graph

°F

Bellevue Temperature Yesterday

Maximum temperature yesterday: 59 °F (at 2:53 pm)
Minimum temperature yesterday: 41 °F (at 5:53 am)
Average temperature yesterday: 51 °F

High & Low Weather Summary for the Past Weeks

 TemperatureHumidityPressure
High59 °F (Apr 6, 3:53 pm)93% (Mar 28, 9:53 pm)30.32 "Hg (Mar 28, 9:53 pm)
Low35 °F (Apr 4, 4:53 am)32% (Apr 6, 3:53 pm)29.60 "Hg (Mar 30, 2:53 am)
Average47 °F69%30.00 "Hg
* Reported Mar 25 11:53 am — Apr 9 11:53 am, Bellevue. Weather by CustomWeather, © 2020

Note: Actual official high and low records may vary slightly from our data, if they occured in-between our weather recording intervals... More about our weather records

Bellevue Weather History for the Previous 24 Hours

Scroll right to see more
 ConditionsComfort  
Time TempWeatherWind HumidityBarometerVisibility
11:53 am
Thu, Apr 9
59 °FSunny.10 mph42%30.16 "Hg10 mi
10:53 am57 °FSunny.8 mph49%30.16 "Hg10 mi
9:53 am53 °FSunny.3 mph56%30.17 "Hg10 mi
8:53 am49 °FSunny.No wind66%30.19 "Hg10 mi
7:53 am46 °FSunny.No wind79%30.19 "Hg10 mi
6:53 am44 °FSunny.No wind79%30.19 "Hg10 mi
5:53 am44 °FClear.No wind79%30.18 "Hg10 mi
4:53 am44 °FClear.No wind73%30.19 "Hg10 mi
3:53 am44 °FClear.No wind71%30.19 "Hg10 mi
2:53 am46 °FClear.No wind66%30.20 "Hg10 mi
1:53 am49 °FClear.No wind59%30.21 "Hg10 mi
12:53 am50 °FClear.No wind59%30.21 "Hg10 mi
11:53 pm
Wed, Apr 8
50 °FClear.No wind59%30.22 "Hg10 mi
10:53 pm51 °FClear.No wind56%30.22 "Hg10 mi
9:53 pm52 °FClear.3 mph57%30.23 "Hg10 mi
8:53 pm53 °FClear.3 mph56%30.22 "Hg10 mi
7:53 pm55 °FClear.5 mph53%30.22 "Hg10 mi
6:53 pm57 °FSunny.8 mph49%30.21 "Hg10 mi
5:53 pm59 °FSunny.10 mph42%30.22 "Hg10 mi
4:53 pm59 °FSunny.10 mph44%30.22 "Hg10 mi
3:53 pm59 °FSunny.10 mph44%30.24 "Hg10 mi
2:53 pm59 °FSunny.10 mph44%30.25 "Hg10 mi
1:53 pm58 °FSunny.10 mph50%30.27 "Hg10 mi
Weather by CustomWeather, © 2020

See weather overview

Advertising